[TLELIST] Archives

 

[list_settings.list_name] Current TLEs

July 26th 2021 PST

HST 1 20580U 90037B 21206.60790260 .00000636 00000-0 27467-4 0 9990 2 20580 28.4689 172.6141 0002938 112.9423 50.1625 15.09688724516786 ISS (ZARYA) 1 25544U 98067A 21207.21215938 .00002838 00000-0 59904-4 0 9995 2 25544 51.6425 149.7400 0001282 199.9245 305.2594 15.48867083294645 CXO 1 25867U 99040B 21205.13499689 .00000322 00000-0 00000-0 0 9996 2 25867 54.1612 253.6947 8377316 226.6916 0.4512 0.37808395 10581 ____________________________________________________________________ These 2-Line ...Continue Reading

[list_settings.list_name] Current TLEs

July 25th 2021 PST

HST 1 20580U 90037B 21205.34922046 .00000637 00000-0 27551-4 0 9994 2 20580 28.4688 180.9431 0002953 100.4577 48.3016 15.09687655516592 ISS (ZARYA) 1 25544U 98067A 21206.23328995 .00003594 00000-0 73688-4 0 9999 2 25544 51.6420 154.5803 0001343 192.4774 251.0228 15.48863435294496 CXO 1 25867U 99040B 21205.13499689 .00000322 00000-0 00000-0 0 9996 2 25867 54.1612 253.6947 8377316 226.6916 0.4512 0.37808395 10581 ____________________________________________________________________ These 2-Line ...Continue Reading

[list_settings.list_name] Current TLEs

July 24th 2021 PST

HST 1 20580U 90037B 21204.69074503 .00000628 00000-0 27008-4 0 9994 2 20580 28.4688 185.3004 0002955 93.7981 69.1352 15.09687094516492 ISS (ZARYA) 1 25544U 98067A 21205.14308635 .00003613 00000-0 74050-4 0 9993 2 25544 51.6420 159.9722 0001383 191.3419 289.2907 15.48855062294329 CXO 1 25867U 99040B 21205.13499689 .00000322 00000-0 00000-0 0 9996 2 25867 54.1612 253.6947 8377316 226.6916 0.4512 0.37808395 10581 ____________________________________________________________________ These 2-Line ...Continue Reading

[list_settings.list_name] Current TLEs

July 23rd 2021 PST

HST 1 20580U 90037B 21203.69912064 .00000599 00000-0 25267-4 0 9998 2 20580 28.4688 191.8623 0002951 83.8811 79.0166 15.09686229516592 ISS (ZARYA) 1 25544U 98067A 21203.40407588 .00003453 00000-0 71172-4 0 9991 2 25544 51.6423 168.5744 0001475 184.3976 313.3642 15.48839820294053 CXO 1 25867U 99040B 21205.13499689 .00000322 00000-0 00000-0 0 9996 2 25867 54.1612 253.6947 8377316 226.6916 0.4512 0.37808395 10581 ____________________________________________________________________ These 2-Line ...Continue Reading

[list_settings.list_name] Current TLEs

July 22nd 2021 PST

HST 1 20580U 90037B 21202.37267353 .00000486 00000-0 18414-4 0 9997 2 20580 28.4687 200.6398 0002934 70.6866 68.8536 15.09684728516144 ISS (ZARYA) 1 25544U 98067A 21203.40407588 .00003453 00000-0 71172-4 0 9991 2 25544 51.6423 168.5744 0001475 184.3976 313.3642 15.48839820294053 CXO 1 25867U 99040B 21205.13499689 .00000322 00000-0 00000-0 0 9996 2 25867 54.1612 253.6947 8377316 226.6916 0.4512 0.37808395 10581 ____________________________________________________________________ These 2-Line ...Continue Reading

[list_settings.list_name] Current TLEs

July 21st 2021 PST

HST 1 20580U 90037B 21201.71601731 .00000456 00000-0 16608-4 0 9996 2 20580 28.4687 204.9850 0002913 64.1697 99.4577 15.09684198516046 ISS (ZARYA) 1 25544U 98067A 21202.37665880 .00001669 00000-0 38635-4 0 9991 2 25544 51.6425 173.6538 0001593 178.6872 346.6124 15.48829380293890 CXO 1 25867U 99040B 21202.48995911 .00000309 00000-0 00000-0 0 9995 2 25867 54.2379 253.8083 8371801 226.6930 0.3019 0.37802322 10578 ____________________________________________________________________ These 2-Line ...Continue Reading

[list_settings.list_name] Current TLEs

July 20th 2021 PST

HST 1 20580U 90037B 21200.72433140 .00000434 00000-0 15239-4 0 9998 2 20580 28.4686 211.5474 0002880 54.3908 108.8748 15.09683567515896 ISS (ZARYA) 1 25544U 98067A 21200.70021948 .00001590 00000-0 37216-4 0 9994 2 25544 51.6427 181.9428 0001777 172.2918 359.3942 15.48822027293639 CXO 1 25867U 99040B 21202.48995911 .00000309 00000-0 00000-0 0 9995 2 25867 54.2379 253.8083 8371801 226.6930 0.3019 0.37802322 10578 ____________________________________________________________________ These 2-Line ...Continue Reading

[list_settings.list_name] Current TLEs

July 19th 2021 PST

HST 1 20580U 90037B 21200.18020318 .00000424 00000-0 14640-4 0 9991 2 20580 28.4686 215.1480 0002850 49.0473 31.0940 15.09683222516056 ISS (ZARYA) 1 25544U 98067A 21200.21959965 .00001691 00000-0 39053-4 0 9992 2 25544 51.6430 184.3183 0001777 169.2119 200.8889 15.48820562293561 CXO 1 25867U 99040B 21202.48976012 .00000309 00000-0 00000-0 0 9996 2 25867 54.2381 253.8083 8371796 226.6932 0.2748 0.37802491 10560 ____________________________________________________________________ These 2-Line ...Continue Reading

[list_settings.list_name] Current TLEs

July 18th 2021 PST

HST 1 20580U 90037B 21198.40492213 .00000404 00000-0 13452-4 0 9997 2 20580 28.4687 226.8957 0002797 30.8152 101.7967 15.09682359515544 ISS (ZARYA) 1 25544U 98067A 21199.33996690 .00001782 00000-0 40721-4 0 9993 2 25544 51.6429 188.6696 0001808 165.8534 336.4006 15.48817075293420 CXO 1 25867U 99040B 21199.84657666 .00000361 00000-0 00000-0 0 9990 2 25867 54.2977 253.9043 8369212 226.7113 0.3620 0.37808299 10551 ____________________________________________________________________ These 2-Line ...Continue Reading

[list_settings.list_name] Current TLEs

July 17th 2021 PST

HST 1 20580U 90037B 21197.40489333 .00000396 00000-0 12932-4 0 9997 2 20580 28.4689 233.5133 0002777 20.4663 66.3576 15.09681866515394 ISS (ZARYA) 1 25544U 98067A 21198.23333625 .00002235 00000-0 48999-4 0 9993 2 25544 51.6424 194.1412 0002006 161.8991 286.0127 15.48813802293256 CXO 1 25867U 99040B 21199.84657666 .00000361 00000-0 00000-0 0 9990 2 25867 54.2977 253.9043 8369212 226.7113 0.3620 0.37808299 10551 ____________________________________________________________________ These 2-Line ...Continue Reading
  • This mailing list is a public mailing list - anyone may join or leave, at any time.
  • This mailing list is announce-only.

International Space Station (ISS) / Hubble Space Telescope (HST) / Chandra X-Ray Observatory Orbital Data via EMAIL

Privacy Policy:

Private list